Location: *
(1.3500°S, 147.5000°W)
Time: 13:49:43
(UTC+00:00)

Cosmos 1943 Rocket - Pass Details

Date: 07 April 2020
Orbit: 811 x 845 km, 71.0° (Epoch: 05 June)

Event Time Altitude Azimuth Distance (km) Brightness Sun altitude
Rises 05:44:30 0° 350° (N) 3,356 5.5 -28.1°
Reaches altitude 10° 05:46:56 10° 352° (N) 2,431 4.7 -28.7°
Enters shadow 05:49:49 32° 1° (N) 1,409 3.3 -29.4°
